Location: ????????
(56.0167°N, 38.0333°E)
Time: 02:27:19
(UTC+00:00)

SL-16 R/B - Pass Details

Date: 19 May 2025
Orbit: 841 x 844 km, 71.0° (Epoch: 14 June)

Event Time Altitude Azimuth Distance (km) Brightness Sun altitude
Rises 19:13:38 0° 323° (NW) 3,416 7.7 -9.2°
Reaches altitude 10° 19:16:11 10° 329° (NNW) 2,478 6.3 -9.3°
Maximum altitude 19:21:42 49° 45° (NE) 1,083 2.9 -9.7°
Drops below altitude 10° 19:27:12 10° 120° (ESE) 2,467 4.1 -10.1°
Enters shadow 19:27:36 - 121° (ESE) 2,613 4.2 -10.1°
